Powrót do katalogu

COSMOS 886 DEB

AktywnyUNKNOWN
NORAD 15555·DEBRIS·🇷🇺 Russia

Wystrzelony Dec 27, 1976 z Baikonur Cosmodrome

Loading…

Następne Przeloty (najbliższe 24 godziny)

TLE

ŚwieżeSource: Space-Track

Epoka: Sep 14, 2026, 12:04 UTC

1 15555U 76126BT  26257.50325084  .00000094  00000-0  16850-3 0  9998
2 15555  65.7817 215.6143 0953147 144.3847 222.4761 12.53558107578011

Śledź COSMOS 886 DEB w czasie rzeczywistym z AllMySat

Download on the App Store